Location: ??????
(55.8274°N, 37.9338°E)
Time: 04:19:54
(UTC+00:00)

Cosmos 1151 Rocket - Visible Passes

Search period start: 21 May 2025 00:00
Search period end: 31 May 2025 00:00
Orbit: 584 x 608 km, 82.5° (Epoch: 20 May)

Date Brightness Start Highest point End Pass type
(mag) Time Alt. Az. Time Alt. Az. Time Alt. Az.
21 May 5.2 19:26:57 10° ESE 19:28:49 13° E 19:30:41 10° NE visible
21 May 2.9 21:02:48 22° S 21:05:30 84° E 21:09:45 10° NNE visible
21 May 5.2 22:40:47 10° W 22:43:31 17° WNW 22:46:16 10° NNW visible
22 May 4.8 19:36:07 11° SE 19:38:49 18° E 19:41:40 10° NE visible
22 May 3.1 21:12:47 19° SSW 21:15:44 68° WNW 21:19:58 10° N visible
22 May 5.5 22:52:11 10° W 22:54:01 12° NW 22:55:52 10° NNW visible
23 May 4.4 19:46:05 13° SE 19:48:51 25° E 19:52:18 10° NNE visible
23 May 3.7 21:22:45 15° SW 21:26:02 47° WNW 21:30:09 10° N visible
24 May 3.9 19:56:02 15° SSE 19:58:56 34° E 20:02:47 10° NNE visible
24 May 4.3 21:32:42 11° SW 21:36:21 34° WNW 21:40:14 10° N visible
25 May 3.4 20:05:58 16° SSE 20:09:04 49° E 20:13:10 10° NNE visible
25 May 4.8 21:43:12 10° WSW 21:46:43 25° WNW 21:50:16 10° N visible
26 May 3.0 20:15:52 16° S 20:19:13 72° E 20:23:28 10° NNE visible
26 May 5.2 21:54:07 10° WSW 21:57:09 19° WNW 22:00:11 10° NNW visible
27 May 4.9 18:50:08 10° ESE 18:52:37 15° E 18:55:07 10° NE visible
27 May 3.0 20:25:46 14° SSW 20:29:26 80° WNW 20:33:43 10° N visible
27 May 5.5 22:05:19 10° W 22:07:37 14° NW 22:09:55 10° NNW visible
28 May 4.5 18:59:26 10° SE 19:02:39 21° E 19:05:52 10° NE visible
28 May 3.5 20:35:38 11° SSW 20:39:42 55° WNW 20:43:53 10° N visible
28 May 5.8 22:17:12 10° WNW 22:18:08 11° NW 22:19:04 10° NW visible
29 May 4.0 19:09:01 10° SSE 19:12:41 30° E 19:16:23 10° NNE visible
29 May 4.1 20:46:02 10° SW 20:50:00 39° WNW 20:54:01 10° N visible
30 May 3.5 19:18:49 10° SSE 19:22:48 42° E 19:26:49 10° NNE visible
30 May 4.7 20:56:40 10° SW 21:00:21 28° WNW 21:04:04 10° N visible
